Year,Month,Day,Hour,Minute,Value (Times are PST for insolation in W/m^2)
2017,04,01,00,00,0.00
2017,04,01,00,01,0.00
2017,04,01,00,02,0.00
2017,04,01,00,03,0.00
2017,04,01,00,04,0.00
2017,04,01,00,05,0.00
2017,04,01,00,06,0.00
2017,04,01,00,07,0.00
2017,04,01,00,08,0.00
2017,04,01,00,09,0.00
2017,04,01,00,10,0.00
2017,04,01,00,11,0.00
2017,04,01,00,12,0.00
2017,04,01,00,13,0.00
2017,04,01,00,14,0.00
2017,04,01,00,15,0.00
2017,04,01,00,16,0.00
2017,04,01,00,17,0.00
2017,04,01,00,18,0.00
2017,04,01,00,19,0.00
2017,04,01,00,20,0.00
2017,04,01,00,21,0.00
2017,04,01,00,22,0.00
2017,04,01,00,23,0.00
2017,04,01,00,24,0.00
2017,04,01,00,25,0.00
2017,04,01,00,26,0.00
2017,04,01,00,27,0.00
2017,04,01,00,28,0.00
2017,04,01,00,29,0.00
2017,04,01,00,30,0.00
2017,04,01,00,31,0.00
2017,04,01,00,32,0.00
2017,04,01,00,33,0.00
2017,04,01,00,34,0.00
2017,04,01,00,35,0.00
2017,04,01,00,36,0.00
2017,04,01,00,37,0.00
2017,04,01,00,38,0.00
2017,04,01,00,39,0.00
2017,04,01,00,40,0.00
2017,04,01,00,41,0.00
2017,04,01,00,42,0.00
2017,04,01,00,43,0.00
2017,04,01,00,44,0.00
2017,04,01,00,45,0.00
2017,04,01,00,46,0.00
2017,04,01,00,47,0.00
2017,04,01,00,48,0.00
2017,04,01,00,49,0.00
2017,04,01,00,50,0.00
2017,04,01,00,51,0.00
2017,04,01,00,52,0.00
2017,04,01,00,53,0.00
2017,04,01,00,54,0.00
2017,04,01,00,55,0.00
2017,04,01,00,56,0.00
2017,04,01,00,57,0.00
2017,04,01,00,58,0.00
2017,04,01,00,59,0.00
2017,04,01,01,00,0.00
2017,04,01,01,01,0.00
2017,04,01,01,02,0.00
2017,04,01,01,03,0.00
2017,04,01,01,04,0.00
2017,04,01,01,05,0.00
2017,04,01,01,06,0.00
2017,04,01,01,07,0.00
2017,04,01,01,08,0.00
2017,04,01,01,09,0.00
2017,04,01,01,10,0.00
2017,04,01,01,11,0.00
2017,04,01,01,12,0.00
2017,04,01,01,13,0.00
2017,04,01,01,14,0.00
2017,04,01,01,15,0.00
2017,04,01,01,16,0.00
2017,04,01,01,17,0.00
2017,04,01,01,18,0.00
2017,04,01,01,19,0.00
2017,04,01,01,20,0.00
2017,04,01,01,21,0.00
2017,04,01,01,22,0.00
2017,04,01,01,23,0.00
2017,04,01,01,24,0.00
2017,04,01,01,25,0.00
2017,04,01,01,26,0.00
2017,04,01,01,27,0.00
2017,04,01,01,28,0.00
2017,04,01,01,29,0.00
2017,04,01,01,30,0.00
2017,04,01,01,31,0.00
2017,04,01,01,32,0.00
2017,04,01,01,33,0.00
2017,04,01,01,34,0.00
2017,04,01,01,35,0.00
2017,04,01,01,36,0.00
2017,04,01,01,37,0.00
2017,04,01,01,38,0.00
2017,04,01,01,39,0.00
2017,04,01,01,40,0.00
2017,04,01,01,41,0.00
2017,04,01,01,42,0.00
2017,04,01,01,43,0.00
2017,04,01,01,44,0.00
2017,04,01,01,45,0.00
2017,04,01,01,46,0.00
2017,04,01,01,47,0.00
2017,04,01,01,48,0.00
2017,04,01,01,49,0.00
2017,04,01,01,50,0.00
2017,04,01,01,51,0.00
2017,04,01,01,52,0.00
2017,04,01,01,53,0.00
2017,04,01,01,54,0.00
2017,04,01,01,55,0.00
2017,04,01,01,56,0.00
2017,04,01,01,57,0.00
2017,04,01,01,58,0.00
2017,04,01,01,59,0.00
2017,04,01,02,00,0.00
2017,04,01,02,01,0.00
2017,04,01,02,02,0.00
2017,04,01,02,03,0.00
2017,04,01,02,04,0.00
2017,04,01,02,05,0.00
2017,04,01,02,06,0.00
2017,04,01,02,07,0.00
2017,04,01,02,08,0.00
2017,04,01,02,09,0.00
2017,04,01,02,10,0.00
2017,04,01,02,11,0.00
2017,04,01,02,12,0.00
2017,04,01,02,13,0.00
2017,04,01,02,14,0.00
2017,04,01,02,15,0.00
2017,04,01,02,16,0.00
2017,04,01,02,17,0.00
2017,04,01,02,18,0.00
2017,04,01,02,19,0.00
2017,04,01,02,20,0.00
2017,04,01,02,21,0.00
2017,04,01,02,22,0.00
2017,04,01,02,23,0.00
2017,04,01,02,24,0.00
2017,04,01,02,25,0.00
2017,04,01,02,26,0.00
2017,04,01,02,27,0.00
2017,04,01,02,28,0.00
2017,04,01,02,29,0.00
2017,04,01,02,30,0.00
2017,04,01,02,31,0.00
2017,04,01,02,32,0.00
2017,04,01,02,33,0.00
2017,04,01,02,34,0.00
2017,04,01,02,35,0.00
2017,04,01,02,36,0.00
2017,04,01,02,37,0.00
2017,04,01,02,38,0.00
2017,04,01,02,39,0.00
2017,04,01,02,40,0.00
2017,04,01,02,41,0.00
2017,04,01,02,42,0.00
2017,04,01,02,43,0.00
2017,04,01,02,44,0.00
2017,04,01,02,45,0.00
2017,04,01,02,46,0.00
2017,04,01,02,47,0.00
2017,04,01,02,48,0.00
2017,04,01,02,49,0.00
2017,04,01,02,50,0.00
2017,04,01,02,51,0.00
2017,04,01,02,52,0.00
2017,04,01,02,53,0.00
2017,04,01,02,54,0.00
2017,04,01,02,55,0.00
2017,04,01,02,56,0.00
2017,04,01,02,57,0.00
2017,04,01,02,58,0.00
2017,04,01,02,59,0.00
2017,04,01,03,00,0.00
2017,04,01,03,01,0.00
2017,04,01,03,02,0.00
2017,04,01,03,03,0.00
2017,04,01,03,04,0.00
2017,04,01,03,05,0.00
2017,04,01,03,06,0.00
2017,04,01,03,07,0.00
2017,04,01,03,08,0.00
2017,04,01,03,09,0.00
2017,04,01,03,10,0.00
2017,04,01,03,11,0.00
2017,04,01,03,12,0.00
2017,04,01,03,13,0.00
2017,04,01,03,14,0.00
2017,04,01,03,15,0.00
2017,04,01,03,16,0.00
2017,04,01,03,17,0.00
2017,04,01,03,18,0.00
2017,04,01,03,19,0.00
2017,04,01,03,20,0.00
2017,04,01,03,21,0.00
2017,04,01,03,22,0.00
2017,04,01,03,23,0.00
2017,04,01,03,24,0.00
2017,04,01,03,25,0.00
2017,04,01,03,26,0.00
2017,04,01,03,27,0.00
2017,04,01,03,28,0.00
2017,04,01,03,29,0.00
2017,04,01,03,30,0.00
2017,04,01,03,31,0.00
2017,04,01,03,32,0.00
2017,04,01,03,33,0.00
2017,04,01,03,34,0.00
2017,04,01,03,35,0.00
2017,04,01,03,36,0.00
2017,04,01,03,37,0.00
2017,04,01,03,38,0.00
2017,04,01,03,39,0.00
2017,04,01,03,40,0.00
2017,04,01,03,41,0.00
2017,04,01,03,42,0.00
2017,04,01,03,43,0.00
2017,04,01,03,44,0.00
2017,04,01,03,45,0.00
2017,04,01,03,46,0.00
2017,04,01,03,47,0.00
2017,04,01,03,48,0.00
2017,04,01,03,49,0.00
2017,04,01,03,50,0.00
2017,04,01,03,51,0.00
2017,04,01,03,52,0.00
2017,04,01,03,53,0.00
2017,04,01,03,54,0.00
2017,04,01,03,55,0.00
2017,04,01,03,56,0.00
2017,04,01,03,57,0.00
2017,04,01,03,58,0.00
2017,04,01,03,59,0.00
2017,04,01,04,00,0.00
2017,04,01,04,01,0.00
2017,04,01,04,02,0.00
2017,04,01,04,03,0.00
2017,04,01,04,04,0.00
2017,04,01,04,05,0.00
2017,04,01,04,06,0.00
2017,04,01,04,07,0.00
2017,04,01,04,08,0.00
2017,04,01,04,09,0.00
2017,04,01,04,10,0.00
2017,04,01,04,11,0.00
2017,04,01,04,12,0.00
2017,04,01,04,13,0.00
2017,04,01,04,14,0.00
2017,04,01,04,15,0.00
2017,04,01,04,16,0.00
2017,04,01,04,17,0.00
2017,04,01,04,18,0.00
2017,04,01,04,19,0.00
2017,04,01,04,20,0.00
2017,04,01,04,21,0.00
2017,04,01,04,22,0.00
2017,04,01,04,23,0.00
2017,04,01,04,24,0.00
2017,04,01,04,25,0.00
2017,04,01,04,26,0.00
2017,04,01,04,27,0.00
2017,04,01,04,28,0.00
2017,04,01,04,29,0.00
2017,04,01,04,30,0.00
2017,04,01,04,31,0.00
2017,04,01,04,32,0.00
2017,04,01,04,33,0.00
2017,04,01,04,34,0.00
2017,04,01,04,35,0.00
2017,04,01,04,36,0.00
2017,04,01,04,37,0.00
2017,04,01,04,38,0.00
2017,04,01,04,39,0.00
2017,04,01,04,40,0.00
2017,04,01,04,41,0.00
2017,04,01,04,42,0.00
2017,04,01,04,43,0.00
2017,04,01,04,44,0.00
2017,04,01,04,45,0.00
2017,04,01,04,46,0.00
2017,04,01,04,47,0.00
2017,04,01,04,48,0.00
2017,04,01,04,49,0.00
2017,04,01,04,50,0.00
2017,04,01,04,51,0.00
2017,04,01,04,52,0.00
2017,04,01,04,53,0.00
2017,04,01,04,54,0.00
2017,04,01,04,55,0.00
2017,04,01,04,56,0.00
2017,04,01,04,57,0.00
2017,04,01,04,58,0.00
2017,04,01,04,59,0.00
2017,04,01,05,00,0.00
2017,04,01,05,01,0.00
2017,04,01,05,02,0.00
2017,04,01,05,03,0.00
2017,04,01,05,04,0.00
2017,04,01,05,05,0.00
2017,04,01,05,06,0.00
2017,04,01,05,07,0.00
2017,04,01,05,08,0.00
2017,04,01,05,09,0.00
2017,04,01,05,10,0.00
2017,04,01,05,11,0.00
2017,04,01,05,12,0.00
2017,04,01,05,13,0.00
2017,04,01,05,14,0.00
2017,04,01,05,15,0.00
2017,04,01,05,16,0.00
2017,04,01,05,17,0.00
2017,04,01,05,18,0.00
2017,04,01,05,19,0.00
2017,04,01,05,20,0.00
2017,04,01,05,21,0.00
2017,04,01,05,22,0.00
2017,04,01,05,23,0.00
2017,04,01,05,24,0.00
2017,04,01,05,25,0.00
2017,04,01,05,26,0.00
2017,04,01,05,27,0.00
2017,04,01,05,28,0.00
2017,04,01,05,29,0.00
2017,04,01,05,30,0.00
2017,04,01,05,31,0.00
2017,04,01,05,32,0.00
2017,04,01,05,33,0.00
2017,04,01,05,34,0.00
2017,04,01,05,35,0.00
2017,04,01,05,36,0.00
2017,04,01,05,37,0.00
2017,04,01,05,38,0.00
2017,04,01,05,39,0.00
2017,04,01,05,40,0.00
2017,04,01,05,41,0.00
2017,04,01,05,42,0.00
2017,04,01,05,43,0.00
2017,04,01,05,44,0.00
2017,04,01,05,45,0.00
2017,04,01,05,46,0.00
2017,04,01,05,47,0.00
2017,04,01,05,48,0.00
2017,04,01,05,49,0.00
2017,04,01,05,50,0.00
2017,04,01,05,51,0.00
2017,04,01,05,52,0.00
2017,04,01,05,53,0.00
2017,04,01,05,54,0.00
2017,04,01,05,55,0.00
2017,04,01,05,56,0.00
2017,04,01,05,57,0.00
2017,04,01,05,58,0.00
2017,04,01,05,59,0.00
2017,04,01,06,00,0.00
2017,04,01,06,01,0.00
2017,04,01,06,02,0.00
2017,04,01,06,03,0.00
2017,04,01,06,04,0.00
2017,04,01,06,05,0.00
2017,04,01,06,06,0.00
2017,04,01,06,07,0.00
2017,04,01,06,08,0.00
2017,04,01,06,09,0.00
2017,04,01,06,10,0.00
2017,04,01,06,11,0.00
2017,04,01,06,12,0.00
2017,04,01,06,13,0.00
2017,04,01,06,14,0.00
2017,04,01,06,15,0.00
2017,04,01,06,16,0.00
2017,04,01,06,17,0.00
2017,04,01,06,18,0.00
2017,04,01,06,19,0.00
2017,04,01,06,20,0.00
2017,04,01,06,21,0.00
2017,04,01,06,22,0.00
2017,04,01,06,23,0.00
2017,04,01,06,24,0.00
2017,04,01,06,25,0.00
2017,04,01,06,26,0.00
2017,04,01,06,27,0.00
2017,04,01,06,28,0.00
2017,04,01,06,29,0.00
2017,04,01,06,30,0.00
2017,04,01,06,31,0.00
2017,04,01,06,32,0.00
2017,04,01,06,33,0.00
2017,04,01,06,34,0.00
2017,04,01,06,35,0.00
2017,04,01,06,36,0.00
2017,04,01,06,37,0.00
2017,04,01,06,38,0.00
2017,04,01,06,39,0.00
2017,04,01,06,40,0.00
2017,04,01,06,41,0.00
2017,04,01,06,42,0.00
2017,04,01,06,43,0.00
2017,04,01,06,44,0.00
2017,04,01,06,45,0.00
2017,04,01,06,46,0.00
2017,04,01,06,47,0.00
2017,04,01,06,48,0.00
2017,04,01,06,49,0.00
2017,04,01,06,50,0.00
2017,04,01,06,51,0.00
2017,04,01,06,52,0.00
2017,04,01,06,53,0.00
2017,04,01,06,54,0.00
2017,04,01,06,55,0.00
2017,04,01,06,56,0.00
2017,04,01,06,57,0.00
2017,04,01,06,58,0.00
2017,04,01,06,59,0.00
2017,04,01,07,00,0.00
2017,04,01,07,01,0.00
2017,04,01,07,02,0.00
2017,04,01,07,03,0.00
2017,04,01,07,04,0.00
2017,04,01,07,05,0.00
2017,04,01,07,06,0.00
2017,04,01,07,07,0.00
2017,04,01,07,08,0.00
2017,04,01,07,09,0.00
2017,04,01,07,10,0.80
2017,04,01,07,11,5.00
2017,04,01,07,12,5.00
2017,04,01,07,13,5.00
2017,04,01,07,14,5.00
2017,04,01,07,15,0.50
2017,04,01,07,16,0.00
2017,04,01,07,17,1.80
2017,04,01,07,18,5.00
2017,04,01,07,19,5.00
2017,04,01,07,20,5.00
2017,04,01,07,21,5.00
2017,04,01,07,22,5.40
2017,04,01,07,23,7.70
2017,04,01,07,24,9.00
2017,04,01,07,25,9.00
2017,04,01,07,26,9.00
2017,04,01,07,27,8.90
2017,04,01,07,28,7.00
2017,04,01,07,29,7.00
2017,04,01,07,30,7.00
2017,04,01,07,31,8.30
2017,04,01,07,32,10.70
2017,04,01,07,33,11.90
2017,04,01,07,34,12.40
2017,04,01,07,35,14.80
2017,04,01,07,36,16.00
2017,04,01,07,37,17.40
2017,04,01,07,38,18.90
2017,04,01,07,39,19.20
2017,04,01,07,40,21.00
2017,04,01,07,41,21.00
2017,04,01,07,42,19.90
2017,04,01,07,43,20.40
2017,04,01,07,44,22.70
2017,04,01,07,45,26.30
2017,04,01,07,46,28.00
2017,04,01,07,47,27.20
2017,04,01,07,48,25.40
2017,04,01,07,49,25.00
2017,04,01,07,50,25.00
2017,04,01,07,51,25.20
2017,04,01,07,52,25.70
2017,04,01,07,53,24.10
2017,04,01,07,54,20.00
2017,04,01,07,55,16.50
2017,04,01,07,56,16.10
2017,04,01,07,57,18.00
2017,04,01,07,58,18.00
2017,04,01,07,59,18.00
2017,04,01,08,00,18.60
2017,04,01,08,01,19.00
2017,04,01,08,02,19.00
2017,04,01,08,03,19.00
2017,04,01,08,04,18.60
2017,04,01,08,05,18.00
2017,04,01,08,06,16.70
2017,04,01,08,07,16.00
2017,04,01,08,08,17.90
2017,04,01,08,09,18.00
2017,04,01,08,10,18.40
2017,04,01,08,11,20.10
2017,04,01,08,12,21.00
2017,04,01,08,13,21.00
2017,04,01,08,14,23.10
2017,04,01,08,15,25.00
2017,04,01,08,16,25.40
2017,04,01,08,17,26.00
2017,04,01,08,18,26.00
2017,04,01,08,19,27.70
2017,04,01,08,20,32.20
2017,04,01,08,21,36.10
2017,04,01,08,22,41.00
2017,04,01,08,23,44.00
2017,04,01,08,24,41.30
2017,04,01,08,25,40.00
2017,04,01,08,26,47.00
2017,04,01,08,27,55.70
2017,04,01,08,28,65.20
2017,04,01,08,29,69.60
2017,04,01,08,30,71.40
2017,04,01,08,31,76.20
2017,04,01,08,32,85.10
2017,04,01,08,33,92.20
2017,04,01,08,34,96.40
2017,04,01,08,35,101.60
2017,04,01,08,36,110.60
2017,04,01,08,37,108.90
2017,04,01,08,38,98.20
2017,04,01,08,39,84.20
2017,04,01,08,40,74.50
2017,04,01,08,41,78.90
2017,04,01,08,42,88.20
2017,04,01,08,43,82.90
2017,04,01,08,44,66.00
2017,04,01,08,45,63.80
2017,04,01,08,46,69.60
2017,04,01,08,47,75.20
2017,04,01,08,48,78.60
2017,04,01,08,49,79.20
2017,04,01,08,50,81.60
2017,04,01,08,51,86.40
2017,04,01,08,52,94.00
2017,04,01,08,53,102.60
2017,04,01,08,54,105.00
2017,04,01,08,55,99.80
2017,04,01,08,56,95.00
2017,04,01,08,57,97.00
2017,04,01,08,58,97.20
2017,04,01,08,59,84.10
2017,04,01,09,00,71.00
2017,04,01,09,01,59.80
2017,04,01,09,02,56.50
2017,04,01,09,03,56.00
2017,04,01,09,04,53.50
2017,04,01,09,05,54.00
2017,04,01,09,06,55.70
2017,04,01,09,07,65.40
2017,04,01,09,08,80.60
2017,04,01,09,09,80.80
2017,04,01,09,10,77.00
2017,04,01,09,11,73.20
2017,04,01,09,12,70.20
2017,04,01,09,13,64.20
2017,04,01,09,14,92.80
2017,04,01,09,15,104.40
2017,04,01,09,16,102.10
2017,04,01,09,17,93.20
2017,04,01,09,18,97.70
2017,04,01,09,19,107.20
2017,04,01,09,20,120.90
2017,04,01,09,21,139.90
2017,04,01,09,22,153.40
2017,04,01,09,23,152.00
2017,04,01,09,24,142.20
2017,04,01,09,25,127.80
2017,04,01,09,26,127.30
2017,04,01,09,27,128.90
2017,04,01,09,28,134.60
2017,04,01,09,29,148.20
2017,04,01,09,30,155.20
2017,04,01,09,31,149.50
2017,04,01,09,32,144.00
2017,04,01,09,33,138.00
2017,04,01,09,34,141.10
2017,04,01,09,35,146.00
2017,04,01,09,36,143.20
2017,04,01,09,37,132.00
2017,04,01,09,38,117.40
2017,04,01,09,39,112.70
2017,04,01,09,40,127.70
2017,04,01,09,41,132.40
2017,04,01,09,42,142.10
2017,04,01,09,43,153.70
2017,04,01,09,44,157.10
2017,04,01,09,45,140.40
2017,04,01,09,46,116.70
2017,04,01,09,47,101.70
2017,04,01,09,48,100.70
2017,04,01,09,49,110.30
2017,04,01,09,50,117.10
2017,04,01,09,51,110.60
2017,04,01,09,52,109.90
2017,04,01,09,53,115.20
2017,04,01,09,54,123.80
2017,04,01,09,55,143.80
2017,04,01,09,56,172.00
2017,04,01,09,57,181.80
2017,04,01,09,58,167.50
2017,04,01,09,59,154.20
2017,04,01,10,00,166.70
2017,04,01,10,01,220.20
2017,04,01,10,02,226.20
2017,04,01,10,03,195.40
2017,04,01,10,04,185.20
2017,04,01,10,05,181.60
2017,04,01,10,06,181.10
2017,04,01,10,07,172.90
2017,04,01,10,08,181.50
2017,04,01,10,09,244.00
2017,04,01,10,10,260.00
2017,04,01,10,11,221.00
2017,04,01,10,12,185.80
2017,04,01,10,13,179.40
2017,04,01,10,14,168.80
2017,04,01,10,15,176.60
2017,04,01,10,16,166.60
2017,04,01,10,17,163.90
2017,04,01,10,18,173.80
2017,04,01,10,19,186.20
2017,04,01,10,20,214.60
2017,04,01,10,21,258.40
2017,04,01,10,22,279.50
2017,04,01,10,23,229.10
2017,04,01,10,24,277.40
2017,04,01,10,25,287.80
2017,04,01,10,26,333.60
2017,04,01,10,27,325.60
2017,04,01,10,28,379.50
2017,04,01,10,29,378.80
2017,04,01,10,30,324.10
2017,04,01,10,31,296.60
2017,04,01,10,32,282.80
2017,04,01,10,33,278.70
2017,04,01,10,34,306.20
2017,04,01,10,35,318.80
2017,04,01,10,36,271.10
2017,04,01,10,37,257.80
2017,04,01,10,38,253.60
2017,04,01,10,39,258.50
2017,04,01,10,40,264.30
2017,04,01,10,41,263.60
2017,04,01,10,42,266.20
2017,04,01,10,43,270.70
2017,04,01,10,44,278.70
2017,04,01,10,45,300.20
2017,04,01,10,46,333.50
2017,04,01,10,47,324.10
2017,04,01,10,48,317.90
2017,04,01,10,49,362.00
2017,04,01,10,50,355.90
2017,04,01,10,51,342.50
2017,04,01,10,52,348.50
2017,04,01,10,53,337.80
2017,04,01,10,54,318.60
2017,04,01,10,55,284.00
2017,04,01,10,56,270.90
2017,04,01,10,57,259.80
2017,04,01,10,58,250.90
2017,04,01,10,59,222.50
2017,04,01,11,00,194.00
2017,04,01,11,01,183.90
2017,04,01,11,02,187.60
2017,04,01,11,03,188.30
2017,04,01,11,04,172.10
2017,04,01,11,05,151.70
2017,04,01,11,06,135.50
2017,04,01,11,07,127.40
2017,04,01,11,08,129.10
2017,04,01,11,09,134.20
2017,04,01,11,10,149.00
2017,04,01,11,11,149.00
2017,04,01,11,12,149.90
2017,04,01,11,13,167.80
2017,04,01,11,14,200.00
2017,04,01,11,15,160.50
2017,04,01,11,16,179.20
2017,04,01,11,17,199.20
2017,04,01,11,18,261.00
2017,04,01,11,19,273.80
2017,04,01,11,20,221.00
2017,04,01,11,21,175.20
2017,04,01,11,22,160.90
2017,04,01,11,23,161.60
2017,04,01,11,24,212.00
2017,04,01,11,25,287.30
2017,04,01,11,26,310.50
2017,04,01,11,27,291.10
2017,04,01,11,28,230.00
2017,04,01,11,29,220.90
2017,04,01,11,30,282.00
2017,04,01,11,31,310.50
2017,04,01,11,32,323.00
2017,04,01,11,33,308.10
2017,04,01,11,34,254.00
2017,04,01,11,35,239.70
2017,04,01,11,36,239.00
2017,04,01,11,37,264.30
2017,04,01,11,38,287.80
2017,04,01,11,39,258.00
2017,04,01,11,40,252.00
2017,04,01,11,41,259.60
2017,04,01,11,42,245.50
2017,04,01,11,43,224.50
2017,04,01,11,44,233.80
2017,04,01,11,45,275.20
2017,04,01,11,46,250.80
2017,04,01,11,47,235.60
2017,04,01,11,48,247.60
2017,04,01,11,49,254.40
2017,04,01,11,50,239.00
2017,04,01,11,51,198.90
2017,04,01,11,52,186.40
2017,04,01,11,53,205.80
2017,04,01,11,54,235.40
2017,04,01,11,55,267.10
2017,04,01,11,56,281.60
2017,04,01,11,57,279.80
2017,04,01,11,58,290.20
2017,04,01,11,59,284.40
2017,04,01,12,00,281.60
2017,04,01,12,01,295.20
2017,04,01,12,02,283.60
2017,04,01,12,03,255.40
2017,04,01,12,04,267.60
2017,04,01,12,05,261.50
2017,04,01,12,06,276.30
2017,04,01,12,07,299.80
2017,04,01,12,08,320.00
2017,04,01,12,09,307.20
2017,04,01,12,10,338.30
2017,04,01,12,11,311.60
2017,04,01,12,12,266.40
2017,04,01,12,13,293.40
2017,04,01,12,14,277.80
2017,04,01,12,15,224.80
2017,04,01,12,16,205.50
2017,04,01,12,17,193.50
2017,04,01,12,18,178.90
2017,04,01,12,19,175.60
2017,04,01,12,20,221.30
2017,04,01,12,21,224.00
2017,04,01,12,22,198.30
2017,04,01,12,23,181.50
2017,04,01,12,24,170.30
2017,04,01,12,25,170.40
2017,04,01,12,26,177.20
2017,04,01,12,27,180.20
2017,04,01,12,28,201.80
2017,04,01,12,29,206.00
2017,04,01,12,30,203.30
2017,04,01,12,31,218.80
2017,04,01,12,32,268.20
2017,04,01,12,33,263.40
2017,04,01,12,34,268.70
2017,04,01,12,35,278.50
2017,04,01,12,36,243.80
2017,04,01,12,37,244.50
2017,04,01,12,38,289.10
2017,04,01,12,39,301.00
2017,04,01,12,40,301.00
2017,04,01,12,41,301.00
2017,04,01,12,42,301.00
2017,04,01,12,43,301.00
2017,04,01,12,44,376.90
2017,04,01,12,45,801.40
2017,04,01,12,46,792.90
2017,04,01,12,47,796.80
2017,04,01,12,48,790.90
2017,04,01,12,49,790.80
2017,04,01,12,50,789.90
2017,04,01,12,51,783.90
2017,04,01,12,52,779.50
2017,04,01,12,53,779.00
2017,04,01,12,54,784.60
2017,04,01,12,55,704.80
2017,04,01,12,56,767.50
2017,04,01,12,57,796.80
2017,04,01,12,58,788.00
2017,04,01,12,59,803.60
2017,04,01,13,00,810.40
2017,04,01,13,01,805.00
2017,04,01,13,02,798.20
2017,04,01,13,03,769.30
2017,04,01,13,04,758.50
2017,04,01,13,05,788.40
2017,04,01,13,06,795.00
2017,04,01,13,07,795.00
2017,04,01,13,08,795.00
2017,04,01,13,09,795.00
2017,04,01,13,10,791.70
2017,04,01,13,11,789.00
2017,04,01,13,12,607.10
2017,04,01,13,13,589.60
2017,04,01,13,14,636.00
2017,04,01,13,15,549.90
2017,04,01,13,16,529.60
2017,04,01,13,17,550.00
2017,04,01,13,18,550.00
2017,04,01,13,19,580.80
2017,04,01,13,20,751.90
2017,04,01,13,21,771.20
2017,04,01,13,22,770.90
2017,04,01,13,23,758.20
2017,04,01,13,24,767.80
2017,04,01,13,25,758.20
2017,04,01,13,26,762.90
2017,04,01,13,27,772.50
2017,04,01,13,28,773.00
2017,04,01,13,29,773.00
2017,04,01,13,30,773.10
2017,04,01,13,31,774.60
2017,04,01,13,32,772.70
2017,04,01,13,33,771.00
2017,04,01,13,34,771.30
2017,04,01,13,35,772.80
2017,04,01,13,36,771.90
2017,04,01,13,37,770.00
2017,04,01,13,38,769.30
2017,04,01,13,39,769.10
2017,04,01,13,40,770.00
2017,04,01,13,41,768.40
2017,04,01,13,42,768.40
2017,04,01,13,43,772.00
2017,04,01,13,44,772.40
2017,04,01,13,45,771.30
2017,04,01,13,46,771.40
2017,04,01,13,47,770.40
2017,04,01,13,48,772.00
2017,04,01,13,49,772.70
2017,04,01,13,50,771.20
2017,04,01,13,51,771.10
2017,04,01,13,52,770.60
2017,04,01,13,53,756.40
2017,04,01,13,54,737.90
2017,04,01,13,55,763.60
2017,04,01,13,56,766.30
2017,04,01,13,57,770.80
2017,04,01,13,58,774.40
2017,04,01,13,59,775.00
2017,04,01,14,00,775.80
2017,04,01,14,01,779.30
2017,04,01,14,02,780.00
2017,04,01,14,03,782.40
2017,04,01,14,04,778.80
2017,04,01,14,05,776.50
2017,04,01,14,06,760.80
2017,04,01,14,07,728.10
2017,04,01,14,08,713.30
2017,04,01,14,09,731.80
2017,04,01,14,10,756.50
2017,04,01,14,11,762.60
2017,04,01,14,12,763.00
2017,04,01,14,13,760.80
2017,04,01,14,14,742.70
2017,04,01,14,15,738.40
2017,04,01,14,16,750.30
2017,04,01,14,17,749.40
2017,04,01,14,18,756.20
2017,04,01,14,19,768.40
2017,04,01,14,20,768.30
2017,04,01,14,21,756.10
2017,04,01,14,22,759.80
2017,04,01,14,23,766.30
2017,04,01,14,24,745.20
2017,04,01,14,25,726.60
2017,04,01,14,26,747.50
2017,04,01,14,27,763.80
2017,04,01,14,28,732.30
2017,04,01,14,29,721.00
2017,04,01,14,30,696.90
2017,04,01,14,31,708.80
2017,04,01,14,32,662.70
2017,04,01,14,33,635.20
2017,04,01,14,34,640.00
2017,04,01,14,35,694.50
2017,04,01,14,36,719.20
2017,04,01,14,37,679.60
2017,04,01,14,38,631.00
2017,04,01,14,39,702.40
2017,04,01,14,40,685.60
2017,04,01,14,41,743.50
2017,04,01,14,42,752.00
2017,04,01,14,43,782.80
2017,04,01,14,44,788.80
2017,04,01,14,45,713.30
2017,04,01,14,46,692.50
2017,04,01,14,47,718.10
2017,04,01,14,48,724.00
2017,04,01,14,49,768.00
2017,04,01,14,50,769.70
2017,04,01,14,51,683.50
2017,04,01,14,52,657.20
2017,04,01,14,53,744.40
2017,04,01,14,54,756.20
2017,04,01,14,55,716.50
2017,04,01,14,56,726.20
2017,04,01,14,57,735.00
2017,04,01,14,58,702.70
2017,04,01,14,59,629.00
2017,04,01,15,00,629.00
2017,04,01,15,01,648.50
2017,04,01,15,02,675.20
2017,04,01,15,03,643.80
2017,04,01,15,04,682.30
2017,04,01,15,05,736.00
2017,04,01,15,06,714.00
2017,04,01,15,07,743.00
2017,04,01,15,08,736.40
2017,04,01,15,09,733.60
2017,04,01,15,10,721.60
2017,04,01,15,11,722.50
2017,04,01,15,12,725.20
2017,04,01,15,13,724.00
2017,04,01,15,14,724.00
2017,04,01,15,15,716.30
2017,04,01,15,16,715.60
2017,04,01,15,17,716.10
2017,04,01,15,18,681.60
2017,04,01,15,19,640.90
2017,04,01,15,20,588.20
2017,04,01,15,21,531.40
2017,04,01,15,22,572.80
2017,04,01,15,23,593.30
2017,04,01,15,24,596.00
2017,04,01,15,25,584.00
2017,04,01,15,26,571.30
2017,04,01,15,27,612.70
2017,04,01,15,28,583.00
2017,04,01,15,29,538.20
2017,04,01,15,30,489.80
2017,04,01,15,31,497.80
2017,04,01,15,32,497.00
2017,04,01,15,33,479.50
2017,04,01,15,34,494.20
2017,04,01,15,35,534.70
2017,04,01,15,36,537.00
2017,04,01,15,37,507.10
2017,04,01,15,38,527.20
2017,04,01,15,39,531.40
2017,04,01,15,40,483.90
2017,04,01,15,41,475.00
2017,04,01,15,42,525.50
2017,04,01,15,43,564.40
2017,04,01,15,44,591.00
2017,04,01,15,45,597.90
2017,04,01,15,46,567.70
2017,04,01,15,47,442.80
2017,04,01,15,48,429.70
2017,04,01,15,49,453.80
2017,04,01,15,50,463.60
2017,04,01,15,51,448.90
2017,04,01,15,52,402.10
2017,04,01,15,53,360.80
2017,04,01,15,54,364.50
2017,04,01,15,55,383.80
2017,04,01,15,56,388.00
2017,04,01,15,57,409.60
2017,04,01,15,58,418.70
2017,04,01,15,59,391.10
2017,04,01,16,00,393.50
2017,04,01,16,01,385.90
2017,04,01,16,02,375.60
2017,04,01,16,03,369.30
2017,04,01,16,04,371.90
2017,04,01,16,05,374.90
2017,04,01,16,06,374.20
2017,04,01,16,07,376.80
2017,04,01,16,08,380.70
2017,04,01,16,09,429.00
2017,04,01,16,10,459.50
2017,04,01,16,11,460.70
2017,04,01,16,12,433.00
2017,04,01,16,13,415.40
2017,04,01,16,14,410.20
2017,04,01,16,15,399.20
2017,04,01,16,16,464.80
2017,04,01,16,17,468.50
2017,04,01,16,18,407.50
2017,04,01,16,19,441.20
2017,04,01,16,20,477.00
2017,04,01,16,21,539.10
2017,04,01,16,22,577.00
2017,04,01,16,23,551.50
2017,04,01,16,24,544.20
2017,04,01,16,25,506.60
2017,04,01,16,26,546.30
2017,04,01,16,27,535.50
2017,04,01,16,28,529.80
2017,04,01,16,29,522.20
2017,04,01,16,30,554.00
2017,04,01,16,31,558.70
2017,04,01,16,32,508.00
2017,04,01,16,33,482.90
2017,04,01,16,34,495.50
2017,04,01,16,35,456.60
2017,04,01,16,36,373.80
2017,04,01,16,37,437.00
2017,04,01,16,38,424.50
2017,04,01,16,39,353.40
2017,04,01,16,40,371.10
2017,04,01,16,41,396.10
2017,04,01,16,42,403.50
2017,04,01,16,43,391.20
2017,04,01,16,44,422.90
2017,04,01,16,45,372.30
2017,04,01,16,46,407.10
2017,04,01,16,47,370.20
2017,04,01,16,48,316.90
2017,04,01,16,49,304.60
2017,04,01,16,50,306.00
2017,04,01,16,51,315.40
2017,04,01,16,52,324.30
2017,04,01,16,53,380.90
2017,04,01,16,54,461.20
2017,04,01,16,55,427.80
2017,04,01,16,56,346.60
2017,04,01,16,57,333.00
2017,04,01,16,58,323.20
2017,04,01,16,59,288.80
2017,04,01,17,00,277.40
2017,04,01,17,01,299.50
2017,04,01,17,02,299.20
2017,04,01,17,03,311.20
2017,04,01,17,04,293.50
2017,04,01,17,05,273.80
2017,04,01,17,06,266.40
2017,04,01,17,07,265.00
2017,04,01,17,08,263.50
2017,04,01,17,09,278.80
2017,04,01,17,10,310.00
2017,04,01,17,11,334.20
2017,04,01,17,12,287.10
2017,04,01,17,13,262.20
2017,04,01,17,14,262.50
2017,04,01,17,15,266.40
2017,04,01,17,16,294.60
2017,04,01,17,17,312.30